Total_Precipitation_Accumulation
0.28 0.33 0.31 0.29 0.27 0.28 0.24 0.14 0.12 0.13 0.08 0.08 0.05 0.06 0.07 0.06 0.06 0.08 0.12 0.16 0.16 0.16 0.14 0.09 0.06 0.05 0.06 0.07 0.07 0.08 0.09 0.09 0.10 0.09 0.08 0.07 0.07 0.07 0.07 0.08 0.07 0.07 0.06
0.35 0.37 0.35 0.36 0.35 0.35 0.38 0.28 0.24 0.24 0.13 0.10 0.10 0.10 0.11 0.10 0.10 0.11 0.14 0.17 0.18 0.19 0.20 0.18 0.13 0.11 0.11 0.12 0.12 0.13 0.14 0.14 0.14 0.15 0.15 0.14 0.14 0.13 0.12 0.12 0.10 0.09 0.08
0.36 0.39 0.44 0.46 0.45 0.42 0.43 0.39 0.37 0.36 0.32 0.26 0.22 0.18 0.16 0.16 0.18 0.19 0.22 0.24 0.22 0.22 0.22 0.21 0.18 0.15 0.13 0.12 0.14 0.16 0.17 0.17 0.18 0.18 0.18 0.18 0.19 0.19 0.18 0.17 0.14 0.13 0.12
0.32 0.40 0.46 0.53 0.53 0.51 0.55 0.55 0.54 0.47 0.42 0.38 0.36 0.32 0.28 0.25 0.25 0.28 0.34 0.37 0.35 0.31 0.28 0.24 0.20 0.17 0.15 0.14 0.13 0.13 0.13 0.15 0.17 0.18 0.17 0.18 0.21 0.21 0.19 0.19 0.19 0.17 0.15
0.48 0.55 0.60 0.68 0.68 0.73 0.74 0.72 0.71 0.61 0.58 0.57 0.50 0.42 0.33 0.33 0.33 0.31 0.35 0.36 0.32 0.30 0.29 0.25 0.19 0.16 0.15 0.15 0.13 0.11 0.11 0.12 0.14 0.13 0.11 0.12 0.16 0.18 0.19 0.21 0.22 0.21 0.19
0.84 0.94 0.97 0.98 0.95 0.95 0.89 0.87 0.84 0.76 0.67 0.63 0.49 0.41 0.37 0.37 0.37 0.35 0.31 0.27 0.24 0.20 0.20 0.19 0.15 0.14 0.17 0.17 0.15 0.14 0.13 0.12 0.11 0.10 0.09 0.10 0.13 0.14 0.14 0.16 0.17 0.17 0.20
1.50 1.51 1.49 1.42 1.31 1.20 1.11 1.00 0.87 0.78 0.71 0.64 0.58 0.48 0.37 0.31 0.29 0.27 0.24 0.24 0.23 0.20 0.18 0.17 0.14 0.12 0.13 0.14 0.13 0.11 0.10 0.11 0.11 0.10 0.10 0.11 0.11 0.10 0.10 0.10 0.11 0.12 0.15
2.20 2.21 2.14 2.05 1.92 1.65 1.29 1.04 0.90 0.85 0.76 0.69 0.66 0.61 0.45 0.29 0.21 0.17 0.17 0.17 0.18 0.18 0.18 0.17 0.15 0.13 0.12 0.12 0.11 0.09 0.09 0.09 0.08 0.08 0.08 0.08 0.07 0.06 0.07 0.07 0.08 0.10 0.12
2.64 2.64 2.55 2.32 1.96 1.55 1.22 1.05 0.99 0.90 0.80 0.70 0.62 0.61 0.54 0.44 0.28 0.17 0.13 0.11 0.11 0.11 0.12 0.13 0.13 0.13 0.12 0.10 0.08 0.08 0.07 0.06 0.06 0.05 0.05 0.04 0.04 0.04 0.05 0.07 0.09 0.11 0.13
2.70 2.56 2.33 1.93 1.57 1.30 1.12 1.05 0.96 0.83 0.74 0.62 0.52 0.45 0.39 0.35 0.30 0.20 0.13 0.09 0.07 0.06 0.06 0.07 0.07 0.07 0.06 0.06 0.07 0.07 0.07 0.06 0.05 0.04 0.04 0.04 0.04 0.04 0.05 0.06 0.08 0.10 0.13
2.22 1.91 1.64 1.36 1.19 1.02 0.86 0.75 0.66 0.56 0.47 0.39 0.33 0.29 0.24 0.20 0.18 0.16 0.13 0.09 0.08 0.08 0.07 0.07 0.06 0.06 0.05 0.05 0.05 0.07 0.07 0.05 0.04 0.03 0.03 0.03 0.04 0.05 0.05 0.08 0.11 0.12 0.14
1.75 1.42 1.19 1.00 0.86 0.71 0.55 0.41 0.33 0.26 0.23 0.22 0.21 0.18 0.16 0.15 0.15 0.15 0.15 0.11 0.09 0.09 0.08 0.09 0.09 0.09 0.08 0.07 0.08 0.10 0.08 0.05 0.04 0.03 0.02 0.02 0.02 0.03 0.04 0.05 0.09 0.14 0.19
1.47 1.13 0.89 0.76 0.61 0.43 0.30 0.23 0.17 0.14 0.13 0.13 0.13 0.14 0.13 0.14 0.13 0.13 0.13 0.12 0.10 0.10 0.10 0.10 0.10 0.10 0.09 0.08 0.09 0.10 0.07 0.05 0.04 0.03 0.02 0.01 0.02 0.02 0.03 0.04 0.06 0.10 0.14
1.10 0.85 0.64 0.48 0.33 0.23 0.19 0.16 0.14 0.12 0.11 0.10 0.10 0.11 0.10 0.09 0.08 0.08 0.09 0.10 0.12 0.12 0.11 0.12 0.11 0.10 0.10 0.10 0.10 0.09 0.06 0.06 0.05 0.04 0.03 0.02 0.02 0.02 0.03 0.04 0.06 0.07 0.09
0.71 0.50 0.36 0.28 0.23 0.18 0.15 0.13 0.11 0.10 0.09 0.09 0.09 0.09 0.09 0.08 0.08 0.08 0.09 0.10 0.14 0.18 0.18 0.16 0.13 0.11 0.09 0.08 0.08 0.06 0.04 0.04 0.04 0.03 0.03 0.03 0.03 0.03 0.04 0.05 0.06 0.07 0.08
0.40 0.32 0.26 0.22 0.18 0.16 0.14 0.12 0.11 0.10 0.09 0.10 0.10 0.11 0.12 0.12 0.13 0.14 0.15 0.15 0.16 0.18 0.18 0.14 0.12 0.10 0.08 0.07 0.06 0.05 0.04 0.05 0.04 0.04 0.04 0.05 0.05 0.04 0.04 0.06 0.07 0.09 0.10
0.29 0.26 0.25 0.23 0.20 0.17 0.15 0.14 0.14 0.14 0.15 0.16 0.17 0.17 0.17 0.17 0.16 0.14 0.14 0.13 0.12 0.14 0.17 0.15 0.12 0.11 0.10 0.09 0.08 0.07 0.07 0.08 0.07 0.08 0.09 0.09 0.07 0.07 0.08 0.09 0.11 0.12 0.13
0.28 0.26 0.24 0.22 0.21 0.20 0.19 0.19 0.19 0.19 0.19 0.19 0.18 0.18 0.17 0.16 0.17 0.16 0.15 0.14 0.14 0.15 0.16 0.16 0.12 0.09 0.09 0.08 0.09 0.11 0.08 0.06 0.08 0.08 0.11 0.11 0.11 0.11 0.11 0.11 0.10 0.10 0.10
0.29 0.27 0.25 0.25 0.25 0.24 0.23 0.22 0.21 0.19 0.18 0.16 0.15 0.14 0.12 0.11 0.11 0.11 0.10 0.09 0.08 0.08 0.11 0.14 0.11 0.09 0.08 0.08 0.13 0.13 0.12 0.16 0.11 0.11 0.11 0.10 0.09 0.08 0.07 0.07 0.07 0.06 0.06
0.30 0.31 0.30 0.28 0.26 0.22 0.19 0.16 0.13 0.11 0.09 0.08 0.07 0.06 0.05 0.05 0.07 0.08 0.08 0.08 0.09 0.10 0.12 0.16 0.15 0.12 0.10 0.10 0.18 0.19 0.15 0.15 0.14 0.10 0.10 0.09 0.08 0.06 0.05 0.05 0.05 0.05 0.04
0.26 0.23 0.20 0.16 0.13 0.09 0.07 0.05 0.04 0.03 0.02 0.02 0.02 0.02 0.02 0.03 0.05 0.06 0.06 0.08 0.13 0.16 0.18 0.20 0.18 0.14 0.12 0.16 0.21 0.21 0.18 0.13 0.09 0.09 0.13 0.12 0.14 0.13 0.13 0.12 0.09 0.06 0.04
0.16 0.12 0.09 0.06 0.05 0.03 0.02 0.01 0.01 0.01 0.01 0.02 0.02 0.02 0.02 0.02 0.02 0.02 0.05 0.10 0.16 0.19 0.20 0.21 0.20 0.21 0.19 0.22 0.25 0.23 0.23 0.22 0.18 0.13 0.19 0.14 0.16 0.17 0.17 0.19 0.16 0.09 0.06
0.08 0.06 0.04 0.03 0.03 0.01 0.00 0.00 0.00 0.00 0.02 0.03 0.04 0.04 0.03 0.02 0.03 0.05 0.06 0.07 0.08 0.09 0.15 0.23 0.26 0.26 0.27 0.29 0.32 0.29 0.30 0.32 0.26 0.21 0.29 0.23 0.17 0.18 0.16 0.16 0.15 0.11 0.09
0.06 0.04 0.03 0.03 0.04 0.02 0.00 0.00 0.00 0.00 0.02 0.03 0.04 0.04 0.05 0.05 0.06 0.06 0.04 0.05 0.08 0.13 0.13 0.16 0.24 0.25 0.25 0.26 0.29 0.31 0.32 0.32 0.27 0.27 0.38 0.34 0.19 0.17 0.14 0.22 0.22 0.15 0.11
0.04 0.03 0.03 0.04 0.07 0.05 0.01 0.00 0.00 0.01 0.03 0.03 0.04 0.03 0.04 0.07 0.07 0.07 0.05 0.08 0.13 0.18 0.11 0.10 0.16 0.22 0.24 0.27 0.28 0.31 0.40 0.47 0.38 0.26 0.35 0.40 0.28 0.22 0.17 0.22 0.24 0.19 0.15
0.04 0.04 0.04 0.05 0.07 0.08 0.02 0.00 0.00 0.00 0.02 0.02 0.05 0.08 0.06 0.06 0.05 0.05 0.04 0.11 0.19 0.21 0.19 0.23 0.31 0.35 0.37 0.45 0.43 0.41 0.49 0.52 0.47 0.42 0.39 0.43 0.38 0.35 0.30 0.21 0.23 0.25 0.25